User: anonymous   Login
Location: Melbourne
(37.8170°S, 144.9670°E)
Time: 08:03:09
(UTC+10:00)
Language:

Cosmos 1656 Rocket - Orbit

View from above orbital plane
View from above orbital plane
View from above satellite
View from above satellite

Ground track
Ground track

The orbit data is extracted from the following two-line orbital elements,

1 15772U 85042D   18115.14811286 -.00000056  00000-0 -38524-5 0  9998
2 15772  71.1102  37.4627 0037668 277.4990 180.8918 14.21225976705773
Epoch (UTC): 25 April 2018 03:33:16
Eccentricity: 0.0037668
inclination: 71.1102°
perigee height: 794 km
apogee height: 848 km
right ascension of ascending node: 37.4627°
argument of perigee: 277.4990°
revolutions per day: 14.21225976
mean anomaly at epoch: 180.8918°
orbit number at epoch: 70577

The dashed part of the orbit path shows where the satellite is in the earth's shadow,  

DLR